User: anonymous   Login
Location: Bothwell
(42.3833°S, 147.0000°E)
Time: 00:21:02
(UTC+10:00)
Language:

STARS - Orbit

View from above orbital plane
View from above orbital plane
View from above satellite
View from above satellite

Ground track
Ground track

The orbit data is extracted from the following two-line orbital elements,

1 33498U 09002G   22274.18512647  .00001997  00000-0  26961-3 0  9992
2 33498  98.1539 167.9168 0009215 272.7656  87.2501 14.80237822737494
Epoch (UTC): 01 October 2022 04:26:34
Eccentricity: 0.0009215
inclination: 98.1539°
perigee height: 622 km
apogee height: 635 km
right ascension of ascending node: 167.9168°
argument of perigee: 272.7656°
revolutions per day: 14.80237822
mean anomaly at epoch: 87.2501°
orbit number at epoch: 73749

The dashed part of the orbit path shows where the satellite is in the earth's shadow,  

DLR